DMSP 5D-2 F13 DEB, 40499

Orbit data source: Space-Track

DMSP 5D-2 F13 DEB, 40499 is space debris in SSO originally from a launch on Fri, 24 Mar 1995 UTC launched from the Air Force Western Test Range (AFWTR). Debris objects in space refer to the collection of defunct objects orbiting the Earth. Examples of debris include non-operational satellites, rocket bodies, and fragments generated from explosions, collisions, or faulty payload assembly.

Loading next visibility...
Identifier
40499, 1995-015CN
Orbit
SSO
Country
Flag of USUS
Related business
Manufacturer
Unknown
Mission
Spacecraft
Bus & Motor
Unknown
Mass
Unknown
Launch date (UTC)
1995-03-24 (31 years ago)
Launch vehicle
Unknown
Launch site
Air Force Western Test Range (AFWTR)
Object type
Payload
Rocket body
Debris
Shape & HBR
Unknown shape, 0.1 m
Radar Cross Section
Small (<0.1 m²)

Expand to show TLE details & history
Last TLE update: 2 days ago

TLE from 2 days ago
0 DMSP 5D-2 F13 DEB
1 40499U 95015CN  25348.55796445  .00004701  00000-0  15460-2 0  9993
2 40499  98.7010  19.9920 0007901  74.1830 286.0227 14.38697403558643
Epoch: 2025-12-14T13:23Z
TLE epoch observation values (Epoch: 2025-12-14T13:23:28.128Z)
Latitude
-0.00007°
Longitude
95.65565°
Altitude
764.192 km
Speed
7.473 km/s
True Right ascension
01h 19m 58s
True Declination
0° 00' 00"
Sunlit
Object was in daylight at epoch
Visualization orbit readout
Latitude
Unknown
Longitude
Unknown
Altitude
Unknown
Speed
Unknown
Apparent Right ascension
Unknown
Apparent Declination
Unknown
Sunlit
N/A
Visualization observer readout
Local Sidereal Time
16:56:31
Azimuth
Unknown
Elevation
Unknown
Doppler factor
Unknown
Orbital elements
Apogee altitude
765.578 km
Perigee altitude
754.299 km
Semi-major axis
7,138.076 km
Eccentricity
0.00079
Inclination
98.701°
RAAN
19.992°
Arg. of periapsis
74.183°
True anomaly
285.93565°
Mean anomaly
286.0227°
Eccentric anomaly
285.97918°
Mean motion
3.59891 °/min
Orbital period
100.03 mins
BSTAR
0.001546
Loading maneuver chart data...
Computing Atmospheric mass density...

Documentation

Showing up to 5 results
|